Dewpoint
-6 -1 1 3 5 6 7 7 6 4 4 5 1 -1 -3 1 5 7 6 6 6 7 8 10 10 8 8 6 6 7 8 7 3 3 1 -0 1 1 0 -0 -1 -1 0 4 7
4 4 1 -3 -4 2 5 6 7 6 5 3 4 -1 -2 2 5 5 3 4 5 6 9 10 9 8 7 6 6 7 7 5 1 1 2 1 0 1 0 -0 -1 -2 -1 6 7
4 5 4 4 2 0 -4 3 4 6 6 5 3 4 -2 -0 5 1 1 4 1 8 9 8 8 7 6 5 5 6 7 3 3 3 2 1 1 0 0 1 -0 -1 2 6 5
3 4 4 4 4 4 2 -1 2 4 6 6 5 4 0 4 1 4 3 4 3 9 9 7 7 6 6 6 5 6 4 4 4 3 2 2 1 1 0 0 -0 0 2 5 4
2 1 2 3 4 4 4 3 0 -1 3 5 6 5 3 4 4 2 -3 1 7 9 8 7 6 6 6 4 4 5 4 4 4 3 2 2 2 1 1 0 -1 -1 1 4 3
3 2 2 1 1 1 1 3 4 1 -4 2 6 6 6 3 1 0 2 8 8 9 7 6 5 4 3 3 4 4 4 4 4 4 3 2 2 1 1 1 -1 -1 1 3 2
2 2 0 -0 -0 0 -1 -1 2 3 1 -4 3 6 6 4 2 0 4 8 8 9 8 6 5 5 4 3 3 3 5 4 4 3 3 3 3 3 1 1 -1 -1 1 2 2
1 1 -0 -0 -3 -1 -0 -1 -0 1 2 0 -4 4 6 4 3 2 4 8 8 8 7 5 5 4 3 2 2 4 4 6 3 3 3 3 5 2 1 1 0 -1 -0 1 1
0 -3 -2 -2 -3 -1 -1 -2 -2 -1 -1 1 2 3 4 3 3 2 2 5 7 8 6 3 4 4 4 4 3 3 4 4 2 2 3 4 4 1 0 1 1 -0 -1 -0 0
-0 -0 -0 -1 -3 -1 -1 -3 -1 -2 0 1 2 2 1 3 2 3 3 4 6 6 3 2 4 4 4 3 5 2 3 0 2 2 3 4 4 1 -2 0 1 0 -1 -1 -0
0 -1 -1 -2 -2 -2 -1 -0 -2 -1 2 -1 -1 -0 -2 1 3 3 2 4 4 4 3 2 4 6 3 2 0 0 0 1 1 0 3 4 4 2 0 -4 -2 -1 -0 -1 -1
-1 -3 -3 -3 -3 -3 -1 0 -2 -0 0 -1 1 -0 -1 1 1 1 3 3 2 4 2 2 5 2 2 1 2 2 2 2 0 -1 1 1 1 0 0 0 -3 -3 -1 -1 -1
-1 -2 -2 -2 -2 -2 -1 -1 -1 -1 2 0 -2 -1 -1 1 0 1 2 1 1 2 3 4 -0 -1 1 2 3 2 3 1 -0 -5 -5 -4 -3 -4 -4 -2 -1 -2 -5 -2 -1
-2 -2 -2 -2 -1 1 -0 -0 -0 -1 2 -2 -3 -2 -3 -2 -0 1 1 1 -0 1 1 2 -2 -1 1 2 2 3 0 -1 -2 -1 -0 -5 -2 -7 -6 -5 -4 -2 -2 -6 -3
-3 -2 -3 -2 0 0 -0 -1 -0 -1 1 -1 -6 -4 -5 -3 -5 -3 1 1 2 0 1 4 -0 -0 1 1 0 2 -1 0 1 2 1 -0 -1 -4 -7 -5 -6 -6 -3 -2 -6
-5 -3 -4 -0 0 0 0 -0 0 1 -0 -0 -3 -2 -3 -3 -3 -8 0 1 1 -1 -1 -1 -4 -1 -2 -2 -1 -1 1 1 1 1 5 1 -1 -4 -5 -7 -8 -7 -6 -4 -5
-6 -5 -4 -1 -0 0 -2 0 1 0 -5 -2 -4 -4 -3 -3 -2 -5 1 3 5 6 5 1 -3 -5 -4 -2 -2 -0 2 5 5 6 5 -3 0 -3 -7 -9 -10 -9 -7 -5 -5
-6 -5 -0 -0 0 -1 -0 1 0 -5 -5 -3 -5 -3 -1 -3 -2 -3 -0 3 1 1 3 5 4 -3 -5 -4 -2 1 0 3 3 4 1 -5 -0 -3 -7 -8 -10 -10 -10 -7 -5
-6 -1 0 1 0 -2 -0 -0 -3 -4 -1 -1 -3 -3 0 -1 -1 -2 -1 1 1 -1 1 3 -1 -4 -5 -6 -5 -0 2 -2 -1 -4 -1 -3 -5 -7 -9 -10 -10 -10 -10 -9 -5
-1 -0 -1 -3 -1 0 0 -2 -3 -5 -1 0 -1 -1 -3 -2 -0 0 -2 -4 -1 -2 -4 -3 1 -4 -6 -7 -6 -4 -4 1 1 6 1 -3 -3 -5 -6 -7 -9 -10 -9 -9 -6
-0 -2 -1 -3 -1 -1 -0 -2 -3 -4 -4 0 -1 0 3 2 1 1 -1 -5 -6 -3 -3 -1 -2 -4 -6 -4 -3 -4 -4 -4 -0 -0 1 -2 -4 -7 -6 -8 -8 -10 -9 -8 -6
-1 -1 -1 -3 -1 -0 -1 -2 -4 -6 -5 -4 -3 -3 -4 -1 2 0 1 -2 -5 -5 -0 -1 3 -2 -3 -6 -7 -5 -2 -2 2 4 2 1 -2 -9 -9 -10 -9 -10 -9 -8 -6
-1 -2 -1 -1 -1 -0 -3 -4 -4 -3 -5 -5 -3 -2 -2 -2 2 3 1 1 -1 -3 -2 -0 4 2 -2 -4 -6 -4 -5 1 1 0 2 -0 -3 -10 -11 -10 -10 -9 -8 -8 -7
-1 -1 -1 -3 -2 -1 -2 -3 -2 -5 -4 -4 -4 -3 1 0 -1 0 0 1 -1 -1 -0 -0 2 2 -1 3 3 0 -0 -4 -1 2 -2 -2 -5 -7 -8 -8 -9 -9 -8 -8 -7
-1 -2 -3 -1 -2 -2 -2 -2 -2 -3 -4 -3 -2 -2 -2 1 4 2 0 2 1 1 0 2 3 1 -1 -3 -1 -1 -0 0 0 -0 0 -4 -5 -7 -8 -9 -9 -9 -9 -8 -7
-1 -2 -2 -2 -3 -1 -1 1 -1 -2 -3 -3 -0 -3 -0 1 1 2 2 2 3 3 3 3 2 -0 -0 -2 -2 -3 -3 -2 -2 -3 -3 -5 -5 -9 -10 -11 -9 -9 -9 -8 -8
-1 -3 -1 -3 -2 -1 1 1 -0 1 -1 -4 -4 2 1 -1 -2 -2 -1 -1 -1 2 3 3 3 2 1 -3 -1 -0 -4 -5 -3 -4 -4 -2 -5 -8 -8 -10 -9 -9 -9 -9 -8
Wind_Speed
21 22 20 20 18 16 16 16 18 20 22 24 23 20 17 16 16 14 20 14 13 15 21 16 15 15 16 14 16 10 7 13 18 14 11 9 12 8 5 9 9 8 2 12 26
18 18 21 25 24 21 20 19 16 17 19 23 24 22 18 16 18 23 22 20 20 20 22 22 21 19 19 18 13 13 11 15 10 7 8 9 14 13 8 12 11 9 6 23 27
23 23 23 22 20 21 22 21 22 17 20 19 21 22 19 15 17 6 7 22 16 22 21 20 19 21 19 16 20 14 18 16 2 6 5 8 11 12 14 14 16 17 17 25 26
21 20 20 22 22 24 23 21 21 21 18 19 18 20 18 8 6 4 8 9 19 18 18 22 21 23 16 14 22 12 21 16 5 6 7 9 8 10 14 5 6 12 22 25 28
24 25 24 23 22 22 23 23 22 23 21 18 19 17 15 12 20 15 13 8 20 19 19 23 25 25 17 17 17 22 14 19 12 7 10 6 11 13 13 14 2 9 22 25 25
24 23 23 24 26 29 29 24 23 22 22 21 17 17 14 19 13 15 8 14 20 21 19 23 20 26 16 19 20 10 21 14 13 21 9 11 14 5 14 13 10 15 21 24 25
23 23 25 25 27 29 26 31 27 22 22 21 21 19 21 25 11 11 12 19 22 22 20 20 20 16 12 15 19 21 11 17 19 14 11 14 17 15 19 12 15 17 20 23 25
26 26 27 27 29 29 27 26 27 29 22 22 21 21 24 17 21 26 11 17 19 18 15 15 17 18 17 7 8 16 19 16 13 18 14 12 15 21 24 17 19 20 20 23 25
26 29 30 30 27 28 28 28 28 27 29 21 19 19 23 12 27 24 25 21 21 14 12 9 15 19 15 11 13 14 14 21 17 16 13 18 11 19 9 26 22 22 23 23 25
27 29 30 31 28 28 30 30 28 25 24 20 21 14 25 15 18 22 23 25 21 16 12 13 11 10 14 15 17 16 19 16 20 14 19 17 20 7 6 15 21 25 24 25 26
28 28 30 30 29 27 28 23 18 11 19 23 11 27 2 21 8 14 26 25 23 23 14 22 10 15 21 21 20 5 16 19 10 7 11 20 19 20 17 15 18 24 29 27 26
29 29 31 31 29 27 24 18 17 14 13 20 27 34 30 13 12 15 24 24 21 20 21 13 21 20 19 19 20 19 12 13 7 6 8 13 19 19 20 22 23 22 25 29 27
31 31 30 30 27 25 18 20 18 19 8 17 26 29 33 29 18 20 29 31 21 22 22 20 8 21 22 21 22 20 17 14 6 7 12 11 17 22 23 26 28 27 25 27 30
30 29 29 27 19 8 10 8 11 15 5 9 11 21 29 30 22 27 24 29 12 24 21 19 19 14 20 19 21 20 17 15 11 5 6 7 6 8 20 23 21 28 32 28 30
28 26 25 18 15 15 13 13 10 7 6 16 13 1 27 37 27 25 25 25 18 15 15 12 20 16 18 19 17 15 14 17 14 13 15 14 6 9 9 15 19 23 32 33 31
27 24 22 15 11 12 9 6 3 4 7 4 3 6 14 28 29 21 34 23 10 14 19 10 4 15 15 11 16 7 7 9 9 11 11 19 15 9 10 15 15 18 30 33 33
26 24 20 14 11 6 5 2 4 5 1 3 6 8 17 18 24 22 27 24 10 8 12 16 11 6 9 11 12 14 15 6 6 7 9 2 15 13 4 4 2 8 26 31 33
25 23 15 12 10 8 3 1 7 4 8 4 9 7 13 14 20 26 19 20 22 16 13 11 10 13 12 12 8 20 18 5 7 6 10 4 9 8 16 15 7 9 9 24 31
23 13 11 6 5 6 3 4 5 5 7 8 11 9 6 9 6 19 23 22 20 23 14 13 15 19 17 14 13 17 17 3 6 2 5 8 10 11 10 7 5 13 12 21 29
14 13 5 7 3 5 2 6 5 6 1 8 6 4 7 10 7 14 17 19 22 24 21 9 8 13 6 4 13 10 15 12 4 5 6 8 10 7 7 14 11 11 13 19 27
7 7 4 6 1 3 4 4 7 10 8 4 5 4 8 2 8 9 5 6 24 22 21 11 7 7 9 12 16 7 10 11 6 8 7 10 5 5 6 3 12 11 15 19 26
5 3 7 5 2 2 5 4 5 10 11 7 5 9 13 1 4 10 7 4 8 22 25 17 3 9 14 6 6 18 15 17 7 7 4 3 1 3 4 3 3 11 15 17 23
4 4 4 3 3 3 9 11 10 11 10 3 4 5 8 5 3 7 4 4 11 8 18 12 4 8 8 3 5 6 17 7 11 6 14 9 4 3 5 6 6 13 15 17 22
3 2 2 2 3 5 9 8 5 8 10 9 8 6 4 8 10 3 7 0 6 7 11 17 5 8 13 5 7 7 11 16 15 12 13 14 18 7 5 7 8 14 16 18 22
3 2 3 3 3 8 9 7 12 7 6 4 4 10 5 2 2 4 5 5 6 6 8 7 6 13 15 13 7 10 15 14 14 19 17 17 14 15 6 5 9 13 17 19 21
3 3 3 9 9 8 9 2 9 12 4 6 5 10 6 4 4 3 5 3 3 4 4 1 3 8 13 13 14 13 17 19 20 21 23 20 22 13 5 7 11 14 17 19 23
4 4 3 6 4 6 4 7 8 12 7 13 10 2 5 6 7 5 5 4 3 8 8 5 4 4 10 12 12 12 23 21 20 22 21 21 20 14 5 7 11 17 19 21 22
Wind_Direction
297 295 292 282 286 293 306 309 308 313 315 317 317 313 315 313 306 288 260 242 228 224 178 189 188 188 191 198 207 215 230 235 229 225 236 147 198 211 158 145 180 180 85 142 160
333 329 313 301 292 279 283 290 302 302 304 310 315 314 313 311 303 281 263 248 233 198 188 191 188 182 189 201 200 208 223 234 256 253 256 173 213 185 186 180 180 170 121 150 158
325 327 325 325 327 315 289 281 279 291 298 301 307 313 311 312 305 279 260 240 209 181 189 197 195 190 202 201 206 216 237 230 254 253 267 226 218 179 216 200 207 189 162 164 165
314 313 314 313 315 315 316 311 282 274 283 294 295 304 309 300 272 303 312 236 194 182 192 199 202 201 211 204 212 245 225 248 279 214 231 227 224 211 225 200 224 192 174 172 174
316 306 303 305 307 303 305 307 309 282 269 279 287 290 300 256 251 279 283 218 184 185 201 199 203 201 211 214 220 218 246 229 218 226 236 243 229 227 220 226 210 179 172 181 181
318 316 313 310 305 298 296 298 298 304 284 266 276 279 264 257 256 262 240 194 192 196 200 204 213 214 234 232 214 219 230 225 233 231 224 234 236 198 226 213 189 178 183 186 186
320 315 310 305 308 303 305 288 289 290 291 282 264 268 256 244 258 251 201 206 202 203 206 210 214 234 222 238 229 223 227 235 233 218 223 228 247 214 232 191 195 186 189 190 190
318 316 314 312 312 307 305 301 290 284 285 282 269 269 259 255 242 239 219 218 210 216 220 222 227 238 235 232 214 218 224 231 211 213 216 193 250 224 223 201 207 200 192 192 193
315 314 312 312 311 308 307 304 297 293 279 275 279 251 263 243 227 230 221 212 212 215 201 213 212 225 221 222 214 206 221 224 224 193 201 207 244 237 207 208 217 206 202 195 193
320 319 316 314 310 305 304 303 305 293 279 262 248 252 252 229 233 219 211 199 196 185 186 198 191 213 214 207 214 213 221 234 217 184 213 212 236 219 201 226 215 221 208 197 197
316 311 313 310 311 306 307 314 302 273 243 223 221 214 317 223 194 210 197 189 188 188 187 192 198 204 202 218 228 292 231 232 221 149 208 229 239 235 220 211 225 224 214 204 201
316 310 308 309 312 306 301 285 281 289 287 273 260 257 245 225 209 202 183 183 191 197 198 186 221 213 215 218 230 246 257 223 216 166 225 243 245 243 235 225 215 217 217 208 201
316 316 313 311 307 300 289 283 285 281 260 266 250 246 237 231 227 187 185 194 193 202 201 204 216 222 210 215 221 224 222 236 251 184 228 273 265 246 233 232 225 215 214 210 205
319 319 316 314 308 302 294 302 299 300 277 246 212 241 224 233 239 231 197 194 202 207 204 225 215 206 222 225 216 222 221 234 186 248 239 197 285 230 209 216 215 214 213 205 203
323 322 322 313 285 286 287 297 300 330 285 342 204 245 204 206 212 223 204 213 211 198 201 200 210 205 213 214 217 230 219 221 244 256 266 239 260 251 182 200 207 211 210 208 201
326 325 323 322 297 284 295 290 274 235 249 325 277 217 198 201 212 215 189 192 217 212 201 208 196 211 215 210 221 222 198 206 229 246 250 238 217 244 191 218 212 209 207 203 198
327 328 317 301 285 309 303 290 245 238 23 311 261 237 211 207 210 219 191 190 172 171 181 193 192 159 198 172 201 187 172 166 201 207 235 342 221 251 215 85 222 191 197 197 195
327 324 318 295 273 276 256 224 251 265 259 246 286 280 238 215 213 215 199 201 208 212 169 178 193 174 185 189 187 194 188 182 203 208 215 163 233 239 244 251 204 179 183 192 191
329 328 314 301 300 222 178 239 273 323 355 330 301 259 258 206 234 203 212 213 207 216 218 197 222 172 181 193 177 199 217 257 314 244 250 189 237 291 205 181 171 181 186 193 189
325 318 296 314 282 172 220 267 285 312 213 287 296 327 265 209 200 193 204 219 216 215 222 234 203 172 156 184 216 220 201 212 225 226 227 196 228 258 185 211 182 188 191 188 181
330 322 298 331 167 200 255 276 300 300 285 263 309 308 288 4 197 211 234 211 203 197 215 206 236 162 148 208 190 181 214 211 235 247 259 238 205 31 79 106 180 183 183 178 177
317 298 320 317 287 245 262 277 318 297 280 259 274 269 264 214 301 196 245 242 260 184 192 199 227 171 205 168 287 219 216 205 209 202 231 299 73 32 56 92 199 162 157 165 171
310 290 337 16 291 301 312 300 290 287 283 275 273 247 304 276 217 231 165 263 298 197 193 155 201 201 193 218 197 220 222 216 232 287 222 215 149 94 88 102 148 139 148 154 163
338 326 317 311 261 290 323 307 315 294 279 269 280 271 298 277 229 239 161 98 284 217 143 166 159 222 213 207 146 200 216 220 219 228 231 226 249 180 107 125 148 153 152 152 160
4 10 338 305 316 312 298 286 295 294 255 266 281 256 267 306 262 206 140 132 187 141 163 149 188 201 231 244 252 218 208 219 208 218 224 238 224 255 77 147 163 158 156 154 158
350 326 318 294 307 306 291 327 307 306 260 284 235 293 319 213 240 220 133 145 178 162 151 149 217 232 235 243 237 250 219 209 218 224 226 229 242 236 89 127 158 166 165 166 165
353 326 289 283 303 300 5 333 317 322 275 263 288 292 296 280 288 334 292 206 171 178 189 162 206 221 257 227 220 250 231 224 222 222 225 230 235 243 195 180 195 180 179 175 170
Height
1482 1480 1479 1478 1476 1474 1473 1470 1469 1467 1464 1462 1459 1456 1454 1452 1450 1449 1446 1446 1446 1447 1449 1454 1456 1459 1462 1463 1465 1466 1461 1453 1443 1446 1441 1443 1447 1452 1452 1455 1460 1463 1463 1466 1473
1479 1477 1475 1473 1472 1470 1469 1467 1465 1463 1461 1460 1458 1455 1453 1450 1448 1444 1443 1442 1441 1443 1447 1450 1453 1456 1459 1460 1462 1460 1453 1446 1439 1440 1443 1445 1447 1452 1455 1455 1459 1463 1465 1469 1471
1478 1475 1473 1471 1468 1466 1463 1463 1461 1459 1458 1456 1455 1454 1451 1450 1448 1438 1436 1436 1438 1441 1447 1450 1452 1455 1455 1455 1455 1452 1446 1442 1445 1448 1449 1446 1449 1450 1452 1452 1453 1458 1465 1468 1471
1476 1473 1471 1469 1467 1463 1462 1457 1457 1455 1455 1453 1451 1451 1449 1450 1445 1436 1434 1434 1436 1440 1444 1446 1449 1451 1449 1448 1449 1449 1445 1445 1445 1450 1452 1448 1448 1450 1451 1449 1453 1455 1461 1466 1469
1472 1470 1468 1465 1462 1460 1457 1455 1452 1450 1449 1450 1448 1448 1448 1446 1438 1437 1434 1434 1437 1439 1442 1443 1444 1446 1443 1442 1445 1444 1443 1445 1447 1451 1451 1450 1449 1449 1448 1450 1453 1456 1459 1464 1469
1470 1466 1464 1461 1457 1455 1452 1450 1449 1447 1445 1444 1445 1444 1443 1439 1435 1433 1432 1433 1436 1437 1439 1441 1440 1442 1440 1438 1439 1439 1444 1444 1445 1446 1450 1451 1447 1449 1446 1449 1453 1455 1459 1463 1466
1466 1464 1461 1455 1453 1450 1447 1444 1444 1442 1441 1440 1440 1439 1434 1429 1430 1430 1430 1431 1433 1435 1436 1439 1439 1440 1440 1437 1437 1438 1442 1440 1439 1444 1445 1449 1445 1442 1444 1447 1450 1452 1457 1461 1464
1462 1459 1457 1454 1449 1446 1442 1439 1437 1436 1436 1435 1434 1434 1420 1422 1424 1427 1427 1429 1430 1432 1436 1437 1439 1439 1438 1437 1436 1438 1436 1435 1429 1436 1442 1447 1437 1434 1440 1444 1446 1448 1452 1458 1462
1460 1455 1452 1449 1445 1441 1438 1434 1431 1429 1428 1430 1430 1431 1417 1412 1414 1417 1421 1424 1428 1431 1434 1436 1439 1438 1439 1437 1435 1432 1427 1429 1424 1430 1435 1441 1434 1430 1432 1435 1441 1443 1447 1453 1459
1455 1451 1448 1445 1441 1438 1432 1429 1425 1422 1421 1422 1423 1428 1411 1407 1409 1410 1415 1420 1425 1429 1433 1435 1436 1434 1431 1430 1425 1421 1424 1414 1419 1425 1430 1434 1432 1428 1432 1432 1436 1439 1442 1448 1453
1450 1448 1443 1439 1437 1433 1430 1427 1423 1417 1414 1407 1404 1405 1397 1403 1405 1405 1408 1415 1420 1424 1424 1428 1432 1426 1423 1423 1417 1416 1410 1415 1414 1421 1429 1427 1426 1426 1427 1432 1433 1433 1435 1440 1448
1445 1441 1437 1434 1430 1428 1426 1426 1423 1422 1410 1404 1403 1400 1399 1399 1400 1402 1406 1410 1411 1412 1419 1423 1416 1419 1423 1421 1423 1421 1421 1414 1413 1421 1431 1423 1419 1418 1418 1418 1426 1428 1429 1434 1443
1440 1436 1432 1428 1425 1422 1421 1420 1419 1416 1408 1398 1395 1392 1394 1398 1393 1396 1401 1403 1405 1410 1409 1410 1408 1415 1414 1416 1419 1419 1420 1419 1420 1426 1429 1425 1416 1410 1408 1410 1415 1421 1424 1429 1434
1436 1432 1428 1424 1422 1418 1418 1416 1415 1414 1400 1382 1376 1376 1385 1390 1389 1394 1396 1400 1401 1401 1404 1408 1406 1411 1411 1411 1412 1415 1415 1418 1423 1427 1420 1420 1406 1377 1386 1397 1404 1410 1416 1421 1428
1432 1426 1424 1420 1418 1417 1417 1415 1414 1413 1399 1377 1365 1369 1370 1377 1382 1384 1394 1396 1395 1395 1403 1403 1400 1409 1409 1408 1412 1414 1414 1420 1424 1423 1419 1414 1423 1385 1379 1387 1394 1399 1405 1412 1420
1428 1423 1420 1418 1416 1414 1414 1412 1413 1411 1394 1377 1371 1369 1368 1371 1377 1375 1385 1393 1398 1396 1395 1397 1401 1403 1404 1410 1412 1416 1420 1421 1426 1426 1423 1411 1410 1385 1381 1381 1382 1389 1396 1404 1413
1425 1420 1417 1415 1415 1412 1412 1413 1410 1400 1380 1374 1369 1367 1365 1365 1375 1372 1378 1385 1390 1397 1400 1398 1404 1402 1404 1410 1413 1417 1418 1430 1436 1431 1415 1399 1402 1379 1368 1377 1377 1381 1389 1397 1407
1421 1417 1414 1413 1412 1411 1412 1414 1404 1380 1379 1378 1369 1368 1366 1365 1368 1371 1374 1381 1385 1384 1387 1394 1403 1400 1403 1405 1408 1412 1409 1406 1411 1410 1398 1410 1398 1379 1371 1375 1382 1387 1389 1395 1402
1418 1416 1413 1411 1409 1410 1413 1409 1389 1381 1383 1380 1371 1367 1368 1365 1367 1369 1372 1375 1379 1378 1381 1386 1385 1388 1397 1400 1403 1412 1408 1403 1404 1393 1386 1388 1383 1376 1375 1379 1382 1385 1390 1392 1398
1417 1414 1412 1410 1408 1410 1412 1398 1391 1388 1391 1390 1377 1372 1361 1362 1368 1370 1369 1366 1372 1376 1378 1380 1389 1390 1401 1403 1402 1400 1402 1412 1415 1408 1393 1365 1371 1361 1370 1371 1377 1383 1388 1390 1395
1416 1414 1411 1410 1409 1410 1405 1395 1391 1388 1388 1389 1381 1379 1376 1372 1371 1369 1363 1359 1361 1371 1378 1383 1384 1397 1402 1399 1394 1404 1401 1399 1397 1395 1381 1371 1363 1363 1365 1369 1372 1380 1385 1389 1394
1416 1414 1411 1410 1411 1408 1400 1396 1393 1386 1386 1384 1382 1377 1375 1374 1374 1370 1368 1361 1359 1363 1374 1383 1390 1392 1394 1390 1396 1391 1393 1394 1397 1401 1397 1392 1368 1371 1374 1376 1374 1377 1385 1390 1396
1416 1414 1412 1411 1408 1403 1398 1394 1391 1388 1383 1381 1380 1380 1375 1369 1376 1373 1371 1375 1368 1364 1369 1381 1394 1391 1389 1397 1398 1396 1389 1392 1395 1393 1386 1384 1366 1374 1376 1378 1379 1382 1388 1393 1397
1417 1413 1412 1411 1410 1409 1401 1393 1390 1386 1384 1381 1379 1378 1380 1372 1367 1367 1369 1375 1373 1371 1374 1381 1389 1383 1376 1378 1386 1397 1393 1388 1390 1393 1386 1377 1369 1369 1375 1379 1383 1386 1390 1394 1399
1417 1416 1415 1408 1406 1406 1405 1400 1392 1387 1382 1382 1378 1376 1374 1379 1371 1370 1368 1374 1376 1376 1378 1385 1385 1382 1378 1375 1384 1383 1389 1393 1394 1386 1385 1377 1372 1363 1373 1378 1383 1387 1391 1395 1399
1418 1417 1416 1412 1409 1405 1400 1396 1392 1387 1384 1380 1381 1376 1375 1377 1375 1370 1372 1376 1376 1380 1385 1388 1381 1376 1375 1375 1377 1381 1376 1382 1387 1383 1381 1373 1370 1365 1375 1377 1383 1387 1391 1394 1398
1418 1417 1416 1409 1407 1405 1399 1398 1394 1391 1383 1380 1377 1381 1377 1375 1373 1372 1371 1372 1373 1378 1383 1387 1386 1381 1371 1365 1374 1381 1366 1366 1372 1378 1373 1372 1370 1366 1373 1378 1381 1384 1389 1393 1397